Dauntless Aviation
Greetings, Guest! To participate, [sign up for a free account] or [log in]
Airports North America Canada
CYLW
YLW

Kelowna International Airport

Kelowna, BC, CANADA

Airport Info
Edit

Location

Latitude / Longitude: 49°53'0"N / 119°29'35"W
  49°53.016'N / 119°29.598'W
  49.8836 / -119.4933

Nearby radio navigation aids

EX RUTLAND NDB. 335.5° 1.0nm from EX to field.
LW KELOWNA NDB. 147.1° 6.5nm from LW to field.

Runway Information

Runway 16 /34

Dimensions: 7300 x 200 ft.
Surface: ASP
 
Runway 16
Runway 34
Latitude: 49.966 49.946278
Longitude: -119.378961 -119.376461
Elevation: 1409 ft. 1409 ft.
Runway true heading: 166.6 346.6
 

Instrument Procedures

  Aerodrome Chart
  Parking Areas
  CAC: Aerodrome Chart
  CAC: Parking Areas - Apron I
  CAC: Parking Areas - Apron III

IAPs (Instrument Approach Procedures)

  CFS: KELOWNA VFR Terminal Procedures Chart
  CFS: KELOWNA VFR Terminal Procedures Chart - Night Circuit Procedure
  CFS: Aerodrome Information
  CFS: Aerodrome Information (Part 2)
  DATBO ONE ARR (DATBO.DATBO 1)
  LENUR ONE ARR (LENUR.LENUR 1)
  RNAV (GNSS) A
  NDB B (GNSS)
  ILS/DME 1 Rwy 16
  Night Circuit Procedures
  KELOWNA FIVE DEP (YLW 5.)

Departure Procedures

  Departure Procedure
Satellite photo at:
Airport distance calculator
From:
Weather Reports

METAR

CYLW

CYLW 221400Z AUTO 00000KT 9SM CLR 01/M02 A3004 RMK PRESRR SLP188
CWUS
20.0nm S
CWUS 221400Z AUTO 23002KT 01/M02 RMK AO1 SLP189 T00141023 51023
CWJV
21.6nm N
CWJV 221400Z AUTO 10002KT M00/00 RMK AO1 SLP186 T10010000 51023
CYYF
25.3nm S
CYYF 221400Z VRB02KT 15SM FEW150 M00/M02 A3006 RMK AC1 SLP193

TAF

CYLW
TAF CYLW 221240Z 2213/2301 20005KT P6SM SCT060 RMK FCST BASED ON AUTO OBS. NXT FCST BY 221900Z
CYYF
25.3nm S
TAF CYYF 221240Z 2213/2301 18010KT P6SM FEW090 BECMG 2221/2223 VRB03KT RMK NXT FCST BY 221900Z
Safelog

 

Dauntless Aviation

© 2007-2014 Dauntless Aviation, all rights reserved
Information provided via PilotNav comes from a variety of official and unofficial data sources. As errors are possible, do not use PilotNav for primary flight planning purposes. Verify any information that you receive via PilotNav with current and canonical charts and other official documents. The material in this database is subject to database copyrights held by Dauntless Aviation and may not be copied without the express permission of Dauntless Aviation - licenses for use of part of all of this data are available for purchase; enquire via the Dauntless Aviation helpdesk. A number of mechanisms and markers exist in the database to protect against and identify infringement / copyright. Automated queries against this website are stictly prohibited, and all activity is logged and analyzed.